IRIDIUM 33 DEB, 33884

Orbit data source: Space-Track

IRIDIUM 33 DEB, 33884 is space debris in LEO originally from a launch on Sun, 14 Sep 1997 UTC launched from the Tyuratam Missile And Space Complex (TTMTR). The debris from Iridium 33, an American commercial communications satellite, has been tracked extensively since its accidental collision with the defunct Russian satellite Cosmos 2251 in 2009. This event, occurring at high speed in low Earth orbit (LEO), generated thousands of pieces of space debris, significantly increasing the risk of further collisions. The Iridium 33 debris cloud has impacted space traffic management and orbital debris mitigation strategies, making it a subject of ongoing study in space situational awareness.

Loading next visibility...
Identifier
33884, 1997-051BD
Orbit
LEO
Country
Flag of USUS
Related business
Manufacturer
Unknown
Mission
Spacecraft
Bus & Motor
Unknown
Mass
Unknown
Launch date (UTC)
1997-09-14 (29 years ago)
Launch vehicle
Unknown
Launch site
Tyuratam Missile And Space Complex (TTMTR)
Object type
Payload
Rocket body
Debris
Shape & HBR
Unknown shape, 0.2 m
Radar Cross Section
Medium (>0.1 m² and <1 m²)

Expand to show TLE details & history
Last TLE update: 1 day ago

TLE from 1 day ago
0 IRIDIUM 33 DEB
1 33884U 97051BD  26208.23167382  .00009082  00000-0  10952-2 0  9996
2 33884  86.3651 266.9932 0009755 217.2549 208.1691 14.83687026921992
Epoch: 2026-07-27T05:33Z
TLE epoch observation values (Epoch: 2026-07-27T05:33:36.618Z)
Latitude
65.2086°
Longitude
-113.46531°
Altitude
635.081 km
Speed
7.544 km/s
True Right ascension
18h 19m 25s
True Declination
65° 04' 30"
Sunlit
Object was in daylight at epoch
Visualization orbit readout
Latitude
Unknown
Longitude
Unknown
Altitude
Unknown
Speed
Unknown
Apparent Right ascension
Unknown
Apparent Declination
Unknown
Sunlit
N/A
Visualization observer readout
Local Sidereal Time
21:17:16
Azimuth
Unknown
Elevation
Unknown
Doppler factor
Unknown
Orbital elements
Apogee altitude
621.427 km
Perigee altitude
607.784 km
Semi-major axis
6,992.743 km
Eccentricity
0.00098
Inclination
86.3651°
RAAN
266.9932°
Arg. of periapsis
217.2549°
True anomaly
208.11639°
Mean anomaly
208.1691°
Eccentric anomaly
208.14274°
Mean motion
3.71169 °/min
Orbital period
96.99 mins
BSTAR
0.0010952
Loading maneuver chart data...
Computing Atmospheric mass density...
Loading historical data...
Loading historical data...
Loading historical data...
Loading historical data...
Loading historical data...
Loading historical data...
Loading historical data...

Documentation

Showing up to 5 results
|